Weather reports worldwide

Advertisment
Shoeburyness Landwick, United Kingdom (3693): temperature & dewpoint: 13.11.2018 20:00:00 - 19.11.2018 20:00:00 (GMT)Shoeburyness Landwick, United Kingdom (3693): temperature -20cm & temperature -100cm: 13.11.2018 20:00:00 - 19.11.2018 20:00:00 (GMT)Shoeburyness Landwick, United Kingdom (3693): wind speed & gusts: 13.11.2018 20:00:00 - 19.11.2018 20:00:00 (GMT)Shoeburyness Landwick, United Kingdom (3693): wind direction: 13.11.2018 20:00:00 - 19.11.2018 20:00:00 (GMT)Shoeburyness Landwick, United Kingdom (3693): reduced air pressure: 13.11.2018 20:00:00 - 19.11.2018 20:00:00 (GMT)Shoeburyness Landwick, United Kingdom (3693): visibility: 13.11.2018 20:00:00 - 19.11.2018 20:00:00 (GMT)Shoeburyness Landwick, United Kingdom (3693): sunshine duration: 13.11.2018 20:00:00 - 19.11.2018 20:00:00 (GMT)Shoeburyness Landwick, United Kingdom (3693): precipitation: 13.11.2018 20:00:00 - 19.11.2018 20:00:00 (GMT)
Date & Time tt [°C] td [°C] tt -20cm [°C] tt -100cm [°C] ff [km/h] ff [kn] fx [km/h] fx [kn] dd ppp [hPa] vv [km] sd [min] rr [mm]
19.11.2018 20:00:00 5,9 2,9 - - 31 17 61 33 ENE 1015,9 30 0 1,0
19.11.2018 19:00:00 5,3 3,2 - - 52 28 70 38 E 1016,7 1,9 0 0,2
19.11.2018 18:00:00 6,8 2,4 - - 35 19 68 37 ENE 1016,4 40 0 1,4
19.11.2018 17:00:00 7,1 3,4 - - 29 16 65 35 ENE 1017,1 6 0 0,0
19.11.2018 16:00:00 8,1 1,7 - - 31 17 48 26 ENE 1017,6 50 0 0,0
19.11.2018 15:00:00 7,6 4,0 - - 29 16 54 29 NE 1018,2 35 0 0,0
19.11.2018 14:00:00 8,8 3,8 - - 31 17 48 26 ENE 1018,8 30 6 0,0
19.11.2018 13:00:00 8,6 3,4 - - 29 16 - - ENE 1019,8 40 12 0,0
19.11.2018 12:00:00 8,7 2,6 - - 34 18 54 29 E 1020,7 45 12 0,0
19.11.2018 11:00:00 7,7 4,1 - - 34 18 55 30 E 1021,7 14 6 0,0
19.11.2018 10:00:00 8,0 4,1 - - 29 16 61 33 E 1022,2 45 6 0,0
19.11.2018 09:00:00 8,0 2,7 9,7 12,0 37 20 50 27 ENE 1022,3 9 0 0,0
19.11.2018 08:00:00 8,0 2,5 - - 28 15 52 28 ENE 1022,7 50 0 0,0
19.11.2018 07:00:00 7,8 3,2 - - 31 17 54 29 E 1023,1 30 0 0,0
19.11.2018 06:00:00 7,7 2,8 - - 34 18 48 26 E 1023,3 40 0 0,0
19.11.2018 05:00:00 7,7 3,2 - - 31 17 48 26 E 1023,4 30 0 0,0
19.11.2018 04:00:00 7,7 2,7 - - 34 18 52 28 E 1023,5 45 0 0,0
19.11.2018 03:00:00 7,5 2,6 - - 31 17 54 29 E 1024,0 50 0 0,0
19.11.2018 02:00:00 7,6 4,5 - - 35 19 48 26 E 1024,4 15 0 0,0
19.11.2018 01:00:00 7,0 1,5 - - 31 17 46 25 ENE 1025,0 24 0 0,0
19.11.2018 00:00:00 7,6 2,1 - - 29 16 - - ENE 1025,4 30 - 0,0
18.11.2018 23:00:00 8,1 1,3 - - 29 16 48 26 ENE 1025,5 28 0 0,0
18.11.2018 22:00:00 8,5 2,1 - - 34 18 48 26 ENE 1025,8 35 0 0,0
18.11.2018 21:00:00 8,7 1,8 - - 26 14 - - ENE 1025,9 29 0 0,0
18.11.2018 20:00:00 8,7 2,5 - - 29 16 - - ENE 1026,1 30 0 0,0
18.11.2018 19:00:00 8,9 3,4 - - 28 15 - - ENE 1026,4 30 0 0,0
18.11.2018 18:00:00 8,9 3,2 - - 29 16 - - ENE 1026,5 25 0 0,0
18.11.2018 17:00:00 8,7 4,3 - - 24 13 - - ENE 1026,7 30 0 0,0
18.11.2018 16:00:00 8,7 4,9 - - 21 11 - - ENE 1026,8 26 42 0,0
18.11.2018 15:00:00 9,7 4,8 - - 24 13 - - ENE 1027,1 28 60 0,0
18.11.2018 14:00:00 10,3 4,8 - - 26 14 - - ENE 1027,0 22 60 0,0
18.11.2018 13:00:00 10,5 5,4 - - 34 18 - - ENE 1027,6 23 60 0,0
18.11.2018 12:00:00 10,6 5,2 - - 29 16 - - E 1027,9 30 60 0,0
18.11.2018 11:00:00 10,3 5,2 - - 29 16 - - E 1028,7 23 60 0,0
18.11.2018 10:00:00 9,7 5,9 - - 26 14 - - E 1028,5 16 60 0,0
18.11.2018 09:00:00 9,4 5,5 10,2 12,0 26 14 - - E 1028,6 16 60 0,0
18.11.2018 08:00:00 8,6 4,9 - - 22 12 - - E 1028,5 17 0 0,0
18.11.2018 07:00:00 8,4 5,0 - - 26 14 - - E 1028,1 12 0 0,0
18.11.2018 06:00:00 8,1 4,9 - - 26 14 - - E 1028,2 12 0 0,0
18.11.2018 05:00:00 8,5 4,7 - - 31 17 - - E 1027,9 15 0 0,0
18.11.2018 04:00:00 8,4 4,7 - - 28 15 - - E 1027,8 21 0 0,0
18.11.2018 03:00:00 8,3 4,6 - - 24 13 - - E 1027,6 17 0 0,0
18.11.2018 02:00:00 8,8 4,7 - - 26 14 - - E 1027,9 17 0 0,0
18.11.2018 01:00:00 9,0 4,9 - - 26 14 - - E 1028,1 17 0 0,0
18.11.2018 00:00:00 9,4 5,2 - - 26 14 - - E 1028,2 20 - 0,0
17.11.2018 23:00:00 9,5 5,3 - - 22 12 - - ESE 1028,2 16 0 0,0
17.11.2018 22:00:00 10,2 4,8 - - 29 16 46 25 ESE 1027,9 18 0 0,0
17.11.2018 21:00:00 9,8 5,3 - - 34 18 48 26 E 1028,0 16 0 0,0
17.11.2018 20:00:00 9,8 5,5 - - 35 19 - - E 1027,9 14 0 0,0
17.11.2018 19:00:00 9,9 5,6 - - 31 17 - - E 1027,7 14 0 0,0
17.11.2018 18:00:00 9,6 5,4 - - 31 17 - - E 1027,3 17 0 0,0
17.11.2018 17:00:00 9,3 5,2 - - 28 15 - - E 1027,2 15 0 0,0
17.11.2018 16:00:00 9,2 5,9 - - 22 12 - - E 1027,4 16 42 0,0
17.11.2018 15:00:00 10,0 6,8 - - 24 13 - - E 1027,1 15 60 0,0
17.11.2018 14:00:00 9,9 6,3 - - 26 14 - - E 1027,3 13 60 0,0
17.11.2018 13:00:00 10,5 6,9 - - 24 13 - - E 1027,7 10 60 0,0
17.11.2018 12:00:00 10,6 6,5 - - 22 12 - - E 1027,7 15 60 0,0
17.11.2018 11:00:00 10,7 6,3 - - 22 12 - - E 1027,9 16 60 0,0
17.11.2018 10:00:00 9,9 7,6 - - 21 11 - - E 1027,8 6 54 0,0
17.11.2018 09:00:00 9,3 7,0 10,9 12,0 21 11 - - E 1027,8 9 6 0,0
17.11.2018 08:00:00 7,2 5,0 - - 13 7 - - ESE 1027,8 7 0 0,0
17.11.2018 07:00:00 8,1 6,3 - - 18 10 - - ESE 1027,3 5 0 0,0
17.11.2018 06:00:00 7,9 6,1 - - 16 9 - - ESE 1027,1 5 0 0,0
17.11.2018 05:00:00 8,0 6,4 - - 15 8 - - ESE 1027,2 5 0 0,0
17.11.2018 04:00:00 7,8 6,0 - - 16 9 - - SE 1027,3 6 0 0,0
17.11.2018 03:00:00 7,6 6,4 - - 13 7 - - ESE 1027,3 6 0 0,0
17.11.2018 02:00:00 8,1 8,1 - - 18 10 - - E 1027,3 1,6 0 0,2
17.11.2018 01:00:00 8,5 8,4 - - 18 10 - - ESE 1027,2 3,0 0 0,0
17.11.2018 00:00:00 8,8 8,7 - - 15 8 - - ESE 1026,9 1,8 - 0,0
16.11.2018 23:00:00 9,0 8,9 - - 16 9 - - ESE 1026,9 2,2 0 0,0
16.11.2018 22:00:00 9,1 9,1 - - 18 10 - - E 1026,7 2,1 0 0,0
16.11.2018 21:00:00 9,3 9,2 - - 16 9 - - E 1026,7 1,8 0 0,0
16.11.2018 20:00:00 9,1 9,0 - - 15 8 - - E 1026,7 1,7 0 0,0
16.11.2018 19:00:00 8,8 8,7 - - 16 9 - - E 1026,9 3,6 0 0,0
16.11.2018 18:00:00 9,0 9,0 - - 15 8 - - ESE 1026,6 2,3 0 0,0
16.11.2018 17:00:00 8,9 8,8 - - 16 9 - - E 1026,2 1,8 0 0,0
16.11.2018 16:00:00 9,1 9,0 - - 13 7 - - E 1025,8 0,9 0 0,2
16.11.2018 15:00:00 9,3 9,2 - - 15 8 - - ESE 1025,9 1,0 0 0,0
16.11.2018 14:00:00 9,2 9,1 - - 13 7 - - ESE 1026,0 1,4 0 0,0
16.11.2018 13:00:00 9,5 9,4 - - 13 7 - - E 1026,1 2,4 0 0,0
16.11.2018 12:00:00 9,7 9,5 - - 9 5 - - ESE 1026,5 4,0 0 0,0
16.11.2018 11:00:00 9,5 9,4 - - 9 5 - - ESE 1026,5 3,3 0 0,0
16.11.2018 10:00:00 9,4 9,3 - - 5 3 - - E 1026,6 5 0 0,0
16.11.2018 09:00:00 9,1 9,1 10,9 12,0 4 2 - - ESE 1026,2 2,0 0 0,0
16.11.2018 08:00:00 9,0 9,0 - - 8 4 - - SE 1025,9 1,7 0 0,2
16.11.2018 07:00:00 9,1 9,0 - - 8 4 - - SE 1025,0 1,5 0 0,0
16.11.2018 06:00:00 9,0 8,9 - - 4 2 - - ESE 1024,8 3,1 0 0,0
16.11.2018 05:00:00 9,1 9,0 - - 4 2 - - ESE 1024,3 3,2 0 0,0
16.11.2018 04:00:00 9,2 9,2 - - 5 3 - - SE 1024,2 2,4 0 0,0
16.11.2018 03:00:00 9,2 9,2 - - 4 2 - - S 1024,1 2,1 0 0,0
16.11.2018 02:00:00 9,5 9,4 - - 5 3 - - SW 1023,9 1,4 0 0,0
16.11.2018 01:00:00 9,5 9,5 - - 8 4 - - SSW 1023,6 0,7 0 0,0
16.11.2018 00:00:00 9,5 9,5 - - 11 6 - - S 1023,6 0,5 - 0,0
15.11.2018 23:00:00 9,6 9,6 - - 13 7 - - S 1022,8 0,8 0 0,0
15.11.2018 22:00:00 9,7 9,7 - - 11 6 - - S 1022,5 1,1 0 0,0
15.11.2018 21:00:00 9,8 9,7 - - 13 7 - - SSE 1022,3 1,6 0 0,0
15.11.2018 20:00:00 9,9 9,9 - - 11 6 - - S 1022,4 0,4 0 0,0
15.11.2018 19:00:00 9,8 9,7 - - 11 6 - - S 1022,1 0,4 0 0,0
15.11.2018 18:00:00 10,0 9,8 - - 11 6 - - SSW 1021,8 0,5 0 0,0
15.11.2018 17:00:00 10,2 9,9 - - 11 6 - - S 1021,3 0,8 0 0,0
15.11.2018 16:00:00 10,9 10,3 - - 13 7 - - S 1021,2 4,5 0 0,0
15.11.2018 15:00:00 12,0 10,9 - - 11 6 - - SSW 1021,3 7 0 0,0
15.11.2018 14:00:00 12,5 11,4 - - 8 4 - - S 1021,3 8 0 0,0
15.11.2018 13:00:00 12,3 11,6 - - 9 5 - - SSE 1021,4 5 0 0,0
15.11.2018 12:00:00 12,2 11,5 - - 11 6 - - SSE 1021,6 5 0 0,0
15.11.2018 11:00:00 12,3 11,5 - - 11 6 - - SSE 1021,9 5 0 0,0
15.11.2018 10:00:00 12,0 11,3 - - 11 6 - - SSE 1022,3 4,8 0 0,0
15.11.2018 09:00:00 11,8 11,2 10,5 12,0 11 6 - - SE 1022,1 4,6 0 0,0
15.11.2018 08:00:00 11,8 11,2 - - 15 8 - - SSE 1021,8 5 0 0,0
15.11.2018 07:00:00 11,9 11,3 - - 15 8 - - SE 1021,3 6 0 0,0
15.11.2018 06:00:00 11,8 11,2 - - 13 7 - - SE 1021,2 8 0 0,0
15.11.2018 05:00:00 11,9 11,1 - - 15 8 - - SE 1021,0 9 0 0,0
15.11.2018 04:00:00 11,8 11,1 - - 11 6 - - SSE 1020,9 8 0 0,0
15.11.2018 03:00:00 11,6 11,0 - - 11 6 - - S 1020,9 10 0 0,0
15.11.2018 02:00:00 11,1 10,6 - - 13 7 - - SSE 1021,3 7 0 0,0
15.11.2018 01:00:00 11,0 10,8 - - 13 7 - - SE 1021,2 8 0 0,0
15.11.2018 00:00:00 8,7 8,4 - - 8 4 - - SE 1021,4 2,0 - 0,0
14.11.2018 23:00:00 9,3 8,8 - - 9 5 - - SE 1021,5 5 0 0,0
14.11.2018 22:00:00 10,3 9,5 - - 9 5 - - SSE 1021,8 11 0 0,0
14.11.2018 21:00:00 9,8 9,1 - - 13 7 - - SE 1021,8 12 0 0,0
14.11.2018 20:00:00 10,2 9,2 - - 11 6 - - SSE 1022,1 17 0 0,0
14.11.2018 19:00:00 10,2 9,0 - - 13 7 - - S 1022,4 18 0 0,0
14.11.2018 18:00:00 10,5 9,2 - - 13 7 - - SSE 1022,1 23 0 0,0
14.11.2018 17:00:00 10,9 9,4 - - 11 6 - - SSE 1022,2 24 0 0,0
14.11.2018 16:00:00 11,6 9,1 - - 15 8 - - SSE 1022,3 30 42 0,0
14.11.2018 15:00:00 11,7 9,2 - - 15 8 - - S 1022,3 30 36 0,0
14.11.2018 14:00:00 12,9 9,1 - - 18 10 - - S 1022,5 35 60 0,0
14.11.2018 13:00:00 13,5 9,1 - - 22 12 - - S 1022,8 30 60 0,0
14.11.2018 12:00:00 13,7 9,5 - - 26 14 - - S 1023,1 25 60 0,0
14.11.2018 11:00:00 13,1 10,2 - - 16 9 - - S 1023,7 20 60 0,0
14.11.2018 10:00:00 12,8 10,1 - - 15 8 - - S 1024,0 22 30 0,0
14.11.2018 09:00:00 11,2 9,5 10,4 12,0 13 7 - - S 1023,9 21 18 0,0
14.11.2018 08:00:00 10,5 9,0 - - 15 8 - - S 1023,7 17 0 0,0
14.11.2018 07:00:00 10,7 8,8 - - 16 9 - - SSW 1023,4 20 0 0,0
14.11.2018 06:00:00 11,0 9,2 - - 21 11 - - SSW 1023,3 20 0 0,0
14.11.2018 05:00:00 11,0 9,3 - - 18 10 - - SSW 1023,5 19 0 0,0
14.11.2018 04:00:00 10,8 9,3 - - 21 11 - - SSW 1023,5 16 0 0,0
14.11.2018 03:00:00 10,7 9,3 - - 16 9 - - S 1024,2 16 0 0,0
14.11.2018 02:00:00 10,3 8,9 - - 18 10 - - S 1024,8 16 0 0,0
14.11.2018 01:00:00 10,1 8,7 - - 18 10 - - S 1025,1 17 0 0,0
14.11.2018 00:00:00 9,2 8,3 - - 15 8 - - SSW 1025,8 12 - 0,0
13.11.2018 23:00:00 9,8 8,8 - - 16 9 - - SSW 1025,9 15 0 0,0
13.11.2018 22:00:00 9,2 8,2 - - 13 7 - - SSW 1025,9 12 0 0,0
13.11.2018 21:00:00 9,7 8,2 - - 15 8 - - SSW 1026,0 14 0 0,0
13.11.2018 20:00:00 10,9 8,7 - - 15 8 - - SW 1025,6 17 0 0,0

tt = temperature
td = dewpoint
tt -20cm = temperature -20cm
tt -100cm = temperature -100cm
ff = wind speed
fx = gusts
dd = wind direction
ppp = reduced air pressure
vv = visibility
sd = sunshine duration
rr = precipitation

Next stations